Back to catalog

OPS 4682 DEB

AlivePO
NORAD 19576·DEBRIS·🇺🇸 United States

Launched Apr 3, 1965 from Vandenberg Space Force Base

Loading…

Next Passes (next 24 hours)

TLE

AgingSource: Space-Track

Epoch: Sep 9, 2026, 13:42 UTC

1 19576U 65027AV  26252.57122552  .00000250  00000-0  79818-3 0  9997
2 19576  90.2471  10.9685 0026401 356.3340  17.4450 13.00762965809321

Track OPS 4682 DEB in real time with AllMySat

Download on the App Store